Nogales, AZ

3:50 AM MST on October 15, 2019 (GMT -0700)
Nogales International

Weather History for KOLS - September, 2019

Change the Weather History Date:

Monday, September 16, 2019

  Actual Average (KFHU) Record (KFHU)
Temperature  
Mean Temperature 74 °F -  
Max Temperature 86 °F 85 °F 93 °F (1988)
Min Temperature 61 °F 65 °F 52 °F (2006)
Cooling Degree Days 8    
Growing Degree Days 24 (Base 50)    
Moisture  
Dew Point 59 °F    
Average Humidity 71    
Maximum Humidity 90    
Minimum Humidity 37    
Precipitation  
Precipitation 0.25 in - - ()
Sea Level Pressure  
Sea Level Pressure 29.96 in    
Wind  
Wind Speed 3 mph ()    
Max Wind Speed 16 mph    
Max Gust Speed 28 mph    
Visibility 9.3 miles    
Events Rain , Thunderstorm    
Averages and records for this station are not official NWS values.
T = Trace of Precipitation, MM = Missing Value Source: Averaged Metar Reports

Daily Weather History Graph

Daily Weather History Graph

Search for Another Location

Airport or City:

Astronomy

Sep. 16, 2019 Rise Set
Actual Time 6:08 AM MST 6:28 PM MST
Civil Twilight 5:43 AM MST 6:52 PM MST
Nautical Twilight 5:15 AM MST 7:20 PM MST
Astronomical Twilight 4:46 AM MST 7:49 PM MST
Moon 8:12 PM MST (9/16) 8:12 AM MST (9/16)
Length of Visible Light 13h 08m
Length of Day
12h 20m
Waning Gibbous, 94% of the Moon is Illuminated
Sep 16
Waning Gibbous
Sep 21
Last Quarter
Sep 28
New
Oct 5
First Quarter
Oct 13
Full

Hourly Weather History & Observations

Time (MST) Temp. Heat Index Dew Point Humidity Pressure Visibility Wind Dir Wind Speed Gust Speed Precip Events Conditions
12:54 AM 64.0 °F - 57.0 °F 78% 29.91 in 10.0 mi Calm Calm - N/A   Clear
1:54 AM 64.0 °F - 57.0 °F 78% 29.90 in 10.0 mi ENE 3.5 mph - N/A   Clear
2:54 AM 64.0 °F - 55.9 °F 75% 29.89 in 10.0 mi NE 5.8 mph - N/A   Clear
3:54 AM 62.1 °F - 57.9 °F 86% 29.90 in 10.0 mi ENE 4.6 mph - N/A   Clear
4:54 AM 61.0 °F - 57.9 °F 90% 29.92 in 10.0 mi Calm Calm - N/A   Clear
5:54 AM 61.0 °F - 57.9 °F 90% 29.93 in 10.0 mi ENE 3.5 mph - N/A   Clear
6:54 AM 64.0 °F - 59.0 °F 84% 29.94 in 10.0 mi ENE 3.5 mph - N/A   Clear
7:54 AM 71.1 °F - 61.0 °F 70% 29.95 in 10.0 mi Calm Calm - N/A   Clear
8:54 AM 75.9 °F - 63.0 °F 64% 29.95 in 10.0 mi Calm Calm - N/A   Clear
9:54 AM 79.0 °F - 64.0 °F 60% 29.94 in 10.0 mi Calm Calm - N/A   Clear
10:54 AM 82.9 °F 83.3 °F 61.0 °F 47% 29.92 in 10.0 mi SW 3.5 mph - N/A   Clear
11:54 AM 84.0 °F 82.9 °F 55.0 °F 37% 29.90 in 10.0 mi Calm Calm - N/A   Partly Cloudy
12:47 PM 84.0 °F 83.0 °F 55.9 °F 38% 30.07 in 10.0 mi SSW 4.6 mph - N/A Thunderstorm Clear
12:54 PM 82.9 °F 82.4 °F 57.0 °F 41% 29.88 in 10.0 mi South 4.6 mph - N/A Thunderstorm Clear
1:10 PM 86.0 °F 84.9 °F 57.0 °F 37% 30.07 in 10.0 mi Variable 4.6 mph - N/A   Clear
1:54 PM 77.0 °F - 57.0 °F 50% 29.88 in 10.0 mi NNW 16.1 mph 27.6 mph N/A Thunderstorm Scattered Clouds
2:28 PM 73.9 °F - 57.0 °F 55% 30.06 in 10.0 mi Variable 3.5 mph - N/A   Clear
2:54 PM 73.0 °F - 60.1 °F 64% 29.89 in 10.0 mi Calm Calm - N/A   Partly Cloudy
3:54 PM 73.0 °F - 60.1 °F 64% 29.89 in 10.0 mi ESE 4.6 mph - N/A   Clear
4:54 PM 73.0 °F - 59.0 °F 61% 29.87 in 10.0 mi East 5.8 mph - N/A   Partly Cloudy
5:54 PM 69.1 °F - 61.0 °F 75% 29.91 in 9.0 mi NNW 6.9 mph - 0.01 in Rain , Thunderstorm Light Rain
6:06 PM 69.1 °F - 60.1 °F 73% 30.06 in 10.0 mi North 6.9 mph 18.4 mph 0.00 in Rain Light Rain
6:54 PM 68.0 °F - 59.0 °F 73% 29.97 in 10.0 mi WSW 9.2 mph - 0.01 in Rain Light Rain
7:28 PM 64.0 °F - 59.0 °F 84% 30.12 in 9.0 mi North 6.9 mph - 0.08 in Rain Rain
7:54 PM 64.0 °F - 61.0 °F 90% 30.00 in 6.0 mi WSW 4.6 mph - 0.10 in Rain Rain
8:18 PM 64.0 °F - 61.0 °F 90% 30.17 in 1.8 mi WNW 5.8 mph - 0.09 in Rain Heavy Rain
8:25 PM 64.0 °F - 61.0 °F 90% 30.17 in 3.0 mi Calm Calm - 0.11 in Rain Rain
8:54 PM 64.0 °F - 61.0 °F 90% 29.98 in 10.0 mi ENE 8.1 mph - 0.13 in Rain Light Rain
9:54 PM 64.0 °F - 59.0 °F 84% 29.93 in 10.0 mi West 3.5 mph - 0.00 in   Partly Cloudy
10:54 PM 64.0 °F - 60.1 °F 87% 29.91 in 10.0 mi SE 5.8 mph - N/A   Mostly Cloudy
11:54 PM 64.0 °F - 61.0 °F 90% 29.90 in 10.0 mi Calm Calm - N/A   Clear